This is the latest recevied weather packets stored in our database for station/object S51UL-6. If no packets are shown the sender has not sent any weather packets the latest 10 day(s).
| Time | Temp. | Humidity | Pressure | Rain* | Wind** | Luminosity | Snow |
|---|---|---|---|---|---|---|---|
| 1788076031 | 23.33° C | 73% | 1018.8 hPa | 0 mm | - | - | - |
| 1788075731 | 22.78° C | 74% | 1018.8 hPa | 0 mm | - | - | - |
| 1788075132 | 20.56° C | 79% | 1018.7 hPa | 0 mm | - | - | - |
| 1788074831 | 20° C | 79% | 1018.8 hPa | 0 mm | - | - | - |
| 1788074531 | 19.44° C | 79% | 1018.8 hPa | 0 mm | - | - | - |
| 1788074231 | 18.89° C | 81% | 1018.8 hPa | 0 mm | - | - | - |
| 1788073932 | 18.33° C | 81% | 1018.7 hPa | 0 mm | - | - | - |
| 1788073631 | 18.33° C | 83% | 1018.7 hPa | 0 mm | - | - | - |
| 1788073331 | 17.78° C | 84% | 1018.5 hPa | 0 mm | - | - | - |
| 1788073033 | 17.22° C | 85% | 1018.5 hPa | 0 mm | - | - | - |
| 1788072732 | 16.67° C | 86% | 1018.5 hPa | 0 mm | - | - | - |
| 1788072432 | 16.67° C | 87% | 1018.7 hPa | 0 mm | - | - | - |
| 1788072132 | 16.11° C | 88% | 1018.5 hPa | 0 mm | - | - | - |
| 1788071831 | 16.11° C | 88% | 1018.5 hPa | 0 mm | - | - | - |
| 1788071532 | 15.56° C | 89% | 1018.4 hPa | 0 mm | - | - | - |
| 1788071232 | 15.56° C | 89% | 1018.5 hPa | 0 mm | - | - | - |
| 1788070932 | 15° C | 89% | 1018.6 hPa | 0 mm | - | - | - |
| 1788070632 | 14.44° C | 89% | 1018.5 hPa | 0 mm | - | - | - |
| 1788069732 | 13.89° C | 89% | 1018.6 hPa | 0 mm | - | - | - |
| 1788069432 | 13.89° C | 89% | 1018.6 hPa | 0 mm | - | - | - |
| 1788069132 | 13.33° C | 89% | 1018.5 hPa | 0 mm | - | - | - |
| 1788068832 | 13.33° C | 89% | 1018.4 hPa | 0 mm | - | - | - |
| 1788068533 | 12.78° C | 89% | 1018.4 hPa | 0 mm | - | - | - |
| 1788067932 | 12.22° C | 89% | 1018.3 hPa | 0 mm | - | - | - |
| 1788067632 | 12.22° C | 89% | 1018.3 hPa | 0 mm | - | - | - |
* Rain latest hour (hover to see other rain measurements)
** Current wind speed in m/s (hover to see current wind gust speed)